OE1TRI Weather Reports


time (UTC)temp
F
wind
direction
speed
knots
gust
knots
rain 1hr
in
rain 24hr
in
rain mn
in
humidity
%
barometer
mb
20260502162005 76 78 2.6 5.2 0.00 0.00 0.00 31 1025.7
20260502161005 74 22 4.3 6.1 0.00 0.00 0.00 32 1026.1
20260502151005 77 75 0.0 4.3 0.00 0.00 0.00 31 1026.4
20260502122005 77 100 2.6 7.0 0.00 0.00 0.00 32 1028.1
20260502121005 77 12 1.7 5.2 0.00 0.00 0.00 32 1028.4
20260502115005 77 164 2.6 2.6 0.00 0.00 0.00 32 1028.8
20260502114005 76 60 0.9 2.6 0.00 0.00 0.00 33 1029.1
20260502113005 76 64 1.7 4.3 0.00 0.00 0.00 32 1029.1
20260502112004 76 83 0.0 0.9 0.00 0.00 0.00 32 1029.1
20260502110005 76 96 1.7 7.0 0.00 0.00 0.00 34 1029.1
20260502105005 74 122 2.6 5.2 0.00 0.00 0.00 34 1029.1
20260502104005 75 134 4.3 5.2 0.00 0.00 0.00 32 1029.5
20260502103005 76 6 0.9 4.3 0.00 0.00 0.00 31 1029.5
20260502102004 73 78 0.9 7.0 0.00 0.00 0.00 33 1029.8
20260502101005 75 29 1.7 7.8 0.00 0.00 0.00 32 1029.8
20260502070005 63 60 0.0 1.7 0.00 0.00 0.00 53 1031.5
20260502064005 64 65 0.9 0.9 0.00 0.00 0.00 52 1031.2
20260502062004 62 89 0.9 1.7 0.00 0.00 0.00 55 1031.2
20260502060005 61 58 0.0 0.9 0.00 0.00 0.00 55 1031.2
20260502053004 58 72 0.0 0.9 0.00 0.00 0.00 59 1031.2
20260502052005 57 87 0.9 1.7 0.00 0.00 0.00 60 1031.2
20260502051005 58 334 1.7 1.7 0.00 0.00 0.00 60 1031.2
20260502050005 59 73 0.0 0.9 0.00 0.00 0.00 56 1031.2
20260502045005 57 66 0.0 0.0 0.00 0.00 0.00 58 1031.2
20260502043004 53 71 0.0 0.0 0.00 0.00 0.00 68 1030.8
20260502042005 51 70 0.0 0.0 0.00 0.00 0.00 70 1031.2
20260502041005 51 74 0.0 0.0 0.00 0.00 0.00 71 1030.8
20260502040005 51 62 0.0 0.0 0.00 0.00 0.00 71 1030.8
20260502035005 50 68 0.0 0.0 0.00 0.00 0.00 72 1030.8
20260502034005 50 75 0.0 0.0 0.00 0.00 0.00 72 1031.2
20260502033005 51 75 0.0 0.0 0.00 0.00 0.00 71 1030.8
20260502030005 52 88 0.9 1.7 0.00 0.00 0.00 69 1030.5
20260502024005 53 82 0.0 0.9 0.00 0.00 0.00 62 1030.8
20260502022004 53 85 0.0 0.9 0.00 0.00 0.00 62 1030.8
20260502021005 54 84 0.9 0.9 0.00 0.00 0.00 61 1030.8
20260502015004 54 84 0.0 0.0 0.00 0.00 0.00 60 1030.8
20260502014004 54 66 0.0 0.9 0.00 0.00 0.00 60 1030.8
20260502013005 54 63 0.0 0.9 0.00 0.00 0.00 60 1030.8
20260502012005 54 2 0.9 2.6 0.00 0.00 0.00 60 1030.5
20260502005005 54 56 0.9 0.9 0.00 0.00 0.00 61 1031.2
20260502002005 55 100 0.0 0.9 0.00 0.00 0.00 60 1031.2
20260502001004 55 185 0.9 0.9 0.00 0.00 0.00 60 1031.2
20260501234005 55 88 0.0 0.0 0.00 0.00 0.00 59 1031.3
20260501233005 55 63 0.0 0.0 0.00 0.00 0.00 59 1031.4
20260501230004 56 83 0.0 0.0 0.00 0.00 0.00 58 1031.5
20260501224005 57 242 0.0 0.9 0.00 0.00 0.00 56 1031.5
20260501223005 57 29 0.9 0.9 0.00 0.00 0.00 55 1031.5
20260501222005 57 90 0.9 1.7 0.00 0.00 0.00 56 1031.5
20260501220005 57 84 0.0 0.9 0.00 0.00 0.00 56 1031.5
20260501214004 58 88 0.0 1.7 0.00 0.00 0.00 54 1031.5
20260501213004 58 27 1.7 1.7 0.00 0.00 0.00 54 1031.5
20260501212004 58 135 0.0 0.0 0.00 0.00 0.00 55 1031.5
20260501210004 58 101 0.0 0.9 0.00 0.00 0.00 55 1031.5
20260501205005 58 85 0.0 0.0 0.00 0.00 0.00 56 1031.5
20260501204004 59 151 0.0 0.0 0.00 0.00 0.00 55 1031.2
20260501203005 60 92 0.0 0.0 0.00 0.00 0.00 54 1031.2
20260501202005 60 89 0.0 0.0 0.00 0.00 0.00 54 1031.2
20260501201005 60 95 0.0 0.0 0.00 0.00 0.00 54 1031.2
20260501200004 60 84 0.0 0.9 0.00 0.00 0.00 54 1031.2
20260501191005 61 77 0.0 0.9 0.00 0.00 0.00 53 1031.2
20260501190005 61 71 0.9 0.9 0.00 0.00 0.00 52 1031.2
20260501185004 62 72 0.0 0.9 0.00 0.00 0.00 51 1031.2
20260501183005 64 68 0.0 0.0 0.00 0.00 0.00 47 1030.8
20260501174005 67 41 0.0 1.7 0.00 0.00 0.00 40 1030.8
20260501172005 67 14 2.6 2.6 0.00 0.00 0.00 39 1030.8
20260501171004 68 8 1.7 5.2 0.00 0.00 0.00 39 1030.5